Private Wetterstation Wechselburg
Wetterdaten: Donnerstag, 26.08.2021
Datum Zeit Temp. +2m Bodentemp. Temp.+5cm Temp. Wind Windchill X Diff Temp. Feuchte +2m Feuchte +5cm Luftdruck Regen Wind Richtung Richtung Sonnenschein Taupunkt Windchill Windben
26.08.2021 00:00 16,9 C 17,2 C 15,7 C 16,7 C 16,3 C 0,0 C 71 % 79 % 1012,0 hPa 0,0 l/m 0,3 km/h (0 Bft) S 180 0 min 11,6 C 16,3 C 0,0 km/h (0 Bft)
26.08.2021 00:05 16,8 C 17,2 C 15,7 C 16,6 C 16,3 C 0,0 C 71 % 79 % 1012,0 hPa 0,0 l/m 0,0 km/h (0 Bft) S-SW 202 0 min 11,5 C 16,3 C 0,0 km/h (0 Bft)
26.08.2021 00:10 16,8 C 17,2 C 15,7 C 16,6 C 16,3 C 0,0 C 71 % 79 % 1012,0 hPa 0,0 l/m 0,0 km/h (0 Bft) SW 225 0 min 11,5 C 16,3 C 0,0 km/h (0 Bft)
26.08.2021 00:15 16,8 C 17,2 C 15,6 C 16,6 C 16,3 C 0,0 C 72 % 78 % 1011,5 hPa 0,0 l/m 0,0 km/h (0 Bft) SW 225 0 min 11,7 C 16,3 C 0,0 km/h (0 Bft)
26.08.2021 00:20 16,7 C 17,2 C 15,6 C 16,6 C 16,3 C 0,0 C 72 % 79 % 1011,5 hPa 0,0 l/m 0,0 km/h (0 Bft) SW 225 0 min 11,6 C 16,3 C 0,0 km/h (0 Bft)
26.08.2021 00:25 16,6 C 17,2 C 15,6 C 16,5 C 16,3 C 0,0 C 72 % 79 % 1011,5 hPa 0,0 l/m 0,0 km/h (0 Bft) SW 225 0 min 11,5 C 16,3 C 0,0 km/h (0 Bft)
26.08.2021 00:30 16,6 C 17,2 C 15,5 C 16,5 C 16,3 C 0,0 C 72 % 79 % 1011,5 hPa 0,0 l/m 0,0 km/h (0 Bft) S-SW 202 0 min 11,5 C 16,3 C 0,0 km/h (0 Bft)
26.08.2021 00:35 16,7 C 17,2 C 15,6 C 16,6 C 16,3 C 0,0 C 72 % 79 % 1011,3 hPa 0,0 l/m 0,0 km/h (0 Bft) W-SW 247 0 min 11,6 C 16,3 C 0,0 km/h (0 Bft)
26.08.2021 00:40 16,7 C 17,2 C 15,5 C 16,6 C 16,3 C 0,0 C 72 % 79 % 1011,3 hPa 0,0 l/m 0,0 km/h (0 Bft) S-SW 202 0 min 11,6 C 16,3 C 0,0 km/h (0 Bft)
26.08.2021 00:45 16,7 C 17,2 C 15,5 C 16,6 C 16,4 C 0,0 C 72 % 79 % 1011,3 hPa 0,0 l/m 0,3 km/h (0 Bft) NW 315 0 min 11,6 C 16,4 C 3,1 km/h (1 Bft)
26.08.2021 00:50 16,7 C 17,2 C 15,6 C 16,6 C 16,4 C 0,0 C 72 % 79 % 1011,3 hPa 0,0 l/m 0,3 km/h (0 Bft) S-SW 202 0 min 11,6 C 16,4 C 0,0 km/h (0 Bft)
26.08.2021 00:55 16,7 C 17,2 C 15,5 C 16,6 C 16,4 C 0,0 C 72 % 79 % 1011,4 hPa 0,0 l/m 0,8 km/h (0 Bft) W-SW 247 0 min 11,6 C 16,4 C 0,0 km/h (0 Bft)
26.08.2021 01:00 16,7 C 17,2 C 15,6 C 16,6 C 16,5 C 0,0 C 72 % 79 % 1011,4 hPa 0,0 l/m 0,6 km/h (0 Bft) SW 225 0 min 11,6 C 16,5 C 0,0 km/h (0 Bft)
26.08.2021 01:05 16,7 C 17,2 C 15,6 C 16,6 C 16,5 C 0,0 C 72 % 79 % 1011,4 hPa 0,0 l/m 0,3 km/h (0 Bft) SW 225 0 min 11,6 C 16,5 C 1,9 km/h (1 Bft)
26.08.2021 01:10 16,7 C 17,2 C 15,5 C 16,6 C 16,5 C 0,0 C 72 % 79 % 1011,4 hPa 0,0 l/m 0,8 km/h (0 Bft) W-SW 247 0 min 11,6 C 16,5 C 2,1 km/h (1 Bft)
26.08.2021 01:15 16,6 C 17,2 C 15,6 C 16,6 C 16,5 C 0,0 C 72 % 79 % 1011,1 hPa 0,0 l/m 1,6 km/h (1 Bft) SW 225 0 min 11,5 C 16,5 C 4,3 km/h (1 Bft)
26.08.2021 01:20 16,6 C 17,2 C 15,6 C 16,5 C 16,2 C 0,0 C 73 % 79 % 1011,1 hPa 0,0 l/m 1,6 km/h (1 Bft) W 270 0 min 11,7 C 16,2 C 7,9 km/h (2 Bft)
26.08.2021 01:25 16,7 C 17,2 C 15,5 C 16,3 C 15,6 C 0,0 C 73 % 80 % 1011,1 hPa 0,0 l/m 1,1 km/h (1 Bft) W-SW 247 0 min 11,8 C 15,6 C 1,9 km/h (1 Bft)
26.08.2021 01:30 16,5 C 17,2 C 15,4 C 16,1 C 15,3 C 0,0 C 74 % 80 % 1011,1 hPa 0,0 l/m 1,0 km/h (0 Bft) SW 225 0 min 11,8 C 15,3 C 2,1 km/h (1 Bft)
26.08.2021 01:35 16,4 C 17,2 C 15,3 C 15,9 C 14,9 C 0,0 C 74 % 81 % 1011,1 hPa 0,0 l/m 0,3 km/h (0 Bft) SW 225 0 min 11,8 C 14,9 C 0,0 km/h (0 Bft)
26.08.2021 01:40 16,3 C 17,3 C 15,1 C 15,7 C 14,5 C 0,0 C 75 % 82 % 1011,1 hPa 0,0 l/m 0,3 km/h (0 Bft) S-SO 157 0 min 11,9 C 14,5 C 3,2 km/h (1 Bft)
26.08.2021 01:45 16,0 C 17,4 C 14,9 C 15,4 C 14,1 C 0,0 C 76 % 84 % 1011,1 hPa 0,0 l/m 1,8 km/h (1 Bft) S 180 0 min 11,8 C 14,1 C 8,0 km/h (2 Bft)
26.08.2021 01:50 15,8 C 17,5 C 14,8 C 15,2 C 13,9 C 0,0 C 77 % 84 % 1011,1 hPa 0,0 l/m 2,6 km/h (1 Bft) W-SW 247 0 min 11,8 C 13,9 C 4,0 km/h (1 Bft)
26.08.2021 01:55 15,5 C 17,5 C 14,6 C 14,9 C 13,8 C 0,0 C 79 % 85 % 1011,1 hPa 0,0 l/m 2,1 km/h (1 Bft) SW 225 0 min 11,9 C 13,8 C 3,1 km/h (1 Bft)
26.08.2021 02:00 15,2 C 17,6 C 14,4 C 14,7 C 13,8 C 0,0 C 80 % 86 % 1011,1 hPa 0,7 l/m 2,1 km/h (1 Bft) SW 225 0 min 11,8 C 13,8 C 3,1 km/h (1 Bft)
26.08.2021 02:05 15,1 C 17,7 C 14,2 C 14,6 C 13,7 C 0,0 C 81 % 87 % 1011,1 hPa 0,0 l/m 1,8 km/h (1 Bft) S-SO 157 0 min 11,9 C 13,7 C 1,6 km/h (1 Bft)
26.08.2021 02:10 14,9 C 17,7 C 14,1 C 14,5 C 13,7 C 0,0 C 82 % 88 % 1011,1 hPa 0,0 l/m 1,1 km/h (1 Bft) W-SW 247 0 min 11,9 C 13,7 C 0,0 km/h (0 Bft)
26.08.2021 02:15 14,8 C 17,7 C 14,0 C 14,4 C 13,7 C 0,0 C 83 % 88 % 1010,9 hPa 0,0 l/m 0,6 km/h (0 Bft) S-SW 202 0 min 11,9 C 13,7 C 3,2 km/h (1 Bft)
26.08.2021 02:20 14,7 C 17,7 C 13,9 C 14,4 C 13,7 C 0,0 C 83 % 89 % 1010,9 hPa 0,0 l/m 0,6 km/h (0 Bft) SW 225 0 min 11,8 C 13,7 C 0,0 km/h (0 Bft)
26.08.2021 02:25 14,7 C 17,7 C 13,9 C 14,3 C 13,6 C 0,0 C 83 % 89 % 1010,9 hPa 0,7 l/m 0,3 km/h (0 Bft) SW 225 0 min 11,8 C 13,6 C 0,0 km/h (0 Bft)
26.08.2021 02:30 14,5 C 17,7 C 13,8 C 14,2 C 13,6 C 0,0 C 84 % 89 % 1010,9 hPa 0,0 l/m 0,2 km/h (0 Bft) SW 225 0 min 11,8 C 13,6 C 0,0 km/h (0 Bft)
26.08.2021 02:35 14,4 C 17,7 C 13,8 C 14,1 C 13,6 C 0,0 C 85 % 89 % 1010,4 hPa 0,0 l/m 0,0 km/h (0 Bft) SW 225 0 min 11,9 C 13,6 C 1,6 km/h (1 Bft)
26.08.2021 02:40 14,3 C 17,7 C 13,7 C 14,1 C 13,6 C 0,0 C 85 % 90 % 1010,4 hPa 0,0 l/m 0,3 km/h (0 Bft) SW 225 0 min 11,8 C 13,6 C 0,0 km/h (0 Bft)
26.08.2021 02:45 14,2 C 17,7 C 13,7 C 14,0 C 13,6 C 0,0 C 85 % 90 % 1010,4 hPa 0,7 l/m 0,5 km/h (0 Bft) S-SW 202 0 min 11,7 C 13,6 C 0,0 km/h (0 Bft)
26.08.2021 02:50 14,1 C 17,7 C 13,6 C 13,9 C 13,6 C 0,0 C 86 % 91 % 1010,4 hPa 0,0 l/m 0,3 km/h (0 Bft) W-SW 247 0 min 11,8 C 13,6 C 0,0 km/h (0 Bft)
26.08.2021 02:55 14,0 C 17,7 C 13,6 C 13,9 C 13,6 C 0,0 C 86 % 91 % 1010,4 hPa 0,0 l/m 0,2 km/h (0 Bft) SW 225 0 min 11,7 C 13,6 C 0,0 km/h (0 Bft)
26.08.2021 03:00 13,9 C 17,7 C 13,5 C 13,8 C 13,6 C 0,0 C 86 % 91 % 1010,4 hPa 0,0 l/m 0,5 km/h (0 Bft) SW 225 0 min 11,6 C 13,6 C 2,4 km/h (1 Bft)
26.08.2021 03:05 13,8 C 17,7 C 13,5 C 13,7 C 13,6 C 0,0 C 86 % 91 % 1010,4 hPa 0,0 l/m 1,0 km/h (0 Bft) NW 315 0 min 11,5 C 13,6 C 3,7 km/h (1 Bft)
26.08.2021 03:10 13,7 C 17,7 C 13,5 C 13,7 C 13,6 C 0,0 C 86 % 91 % 1010,4 hPa 0,0 l/m 1,0 km/h (0 Bft) W-SW 247 0 min 11,4 C 13,6 C 1,8 km/h (1 Bft)
26.08.2021 03:15 13,6 C 17,7 C 13,5 C 13,6 C 13,6 C 0,0 C 86 % 91 % 1010,1 hPa 0,7 l/m 1,1 km/h (1 Bft) SW 225 0 min 11,3 C 13,6 C 0,0 km/h (0 Bft)
26.08.2021 03:20 13,5 C 17,7 C 13,5 C 13,6 C 13,6 C 0,1 C 86 % 91 % 1010,1 hPa 0,0 l/m 0,8 km/h (0 Bft) SW 225 0 min 11,2 C 13,6 C 2,6 km/h (1 Bft)
26.08.2021 03:25 13,5 C 17,7 C 13,5 C 13,6 C 13,6 C 0,1 C 86 % 92 % 1010,1 hPa 0,0 l/m 0,6 km/h (0 Bft) SW 225 0 min 11,2 C 13,6 C 1,8 km/h (1 Bft)
26.08.2021 03:30 13,4 C 17,7 C 13,5 C 13,6 C 13,6 C 0,2 C 86 % 92 % 1010,1 hPa 0,0 l/m 0,5 km/h (0 Bft) S 180 0 min 11,1 C 13,6 C 0,0 km/h (0 Bft)
26.08.2021 03:35 13,2 C 17,7 C 13,5 C 13,6 C 13,6 C 0,4 C 86 % 92 % 1009,8 hPa 0,0 l/m 0,6 km/h (0 Bft) SW 225 0 min 10,9 C 13,6 C 0,0 km/h (0 Bft)
26.08.2021 03:40 13,3 C 17,7 C 13,5 C 13,7 C 13,7 C 0,4 C 86 % 92 % 1009,8 hPa 0,0 l/m 0,8 km/h (0 Bft) SW 225 0 min 11,0 C 13,7 C 2,6 km/h (1 Bft)
26.08.2021 03:45 13,1 C 17,7 C 13,5 C 13,7 C 13,7 C 0,6 C 86 % 92 % 1009,8 hPa 0,7 l/m 1,1 km/h (1 Bft) S 180 0 min 10,8 C 13,7 C 1,8 km/h (1 Bft)
26.08.2021 03:50 13,1 C 17,7 C 13,5 C 13,7 C 13,7 C 0,6 C 86 % 92 % 1009,8 hPa 0,0 l/m 1,6 km/h (1 Bft) S-SW 202 0 min 10,8 C 13,7 C 2,6 km/h (1 Bft)
26.08.2021 03:55 13,1 C 17,7 C 13,5 C 13,7 C 13,7 C 0,6 C 87 % 92 % 1009,6 hPa 0,0 l/m 1,1 km/h (1 Bft) SW 225 0 min 11,0 C 13,7 C 0,0 km/h (0 Bft)
26.08.2021 04:00 12,9 C 17,7 C 13,5 C 13,8 C 13,8 C 0,9 C 87 % 92 % 1009,6 hPa 0,0 l/m 0,6 km/h (0 Bft) S 180 0 min 10,8 C 13,8 C 4,7 km/h (1 Bft)
26.08.2021 04:05 12,9 C 17,7 C 13,5 C 13,8 C 13,8 C 0,9 C 87 % 92 % 1009,6 hPa 0,0 l/m 0,3 km/h (0 Bft) SW 225 0 min 10,8 C 13,8 C 0,0 km/h (0 Bft)
26.08.2021 04:10 12,9 C 17,7 C 13,5 C 13,8 C 13,8 C 0,9 C 87 % 93 % 1009,6 hPa 0,0 l/m 1,0 km/h (0 Bft) W-SW 247 0 min 10,8 C 13,8 C 0,0 km/h (0 Bft)
26.08.2021 04:15 12,8 C 17,7 C 13,5 C 13,8 C 13,8 C 1,0 C 86 % 93 % 1009,3 hPa 0,0 l/m 0,6 km/h (0 Bft) SW 225 0 min 10,5 C 13,8 C 1,6 km/h (1 Bft)
26.08.2021 04:20 12,9 C 17,7 C 13,5 C 13,8 C 13,8 C 0,9 C 87 % 93 % 1009,3 hPa 0,0 l/m 0,5 km/h (0 Bft) SW 225 0 min 10,8 C 13,8 C 1,6 km/h (1 Bft)
26.08.2021 04:25 12,8 C 17,7 C 13,6 C 13,8 C 13,8 C 1,0 C 86 % 93 % 1009,3 hPa 0,0 l/m 0,6 km/h (0 Bft) W-NW 292 0 min 10,5 C 13,8 C 4,3 km/h (1 Bft)
26.08.2021 04:30 12,7 C 17,7 C 13,6 C 13,8 C 13,8 C 1,1 C 86 % 93 % 1009,3 hPa 0,0 l/m 0,8 km/h (0 Bft) W-SW 247 0 min 10,4 C 13,8 C 3,2 km/h (1 Bft)
26.08.2021 04:35 12,7 C 17,7 C 13,6 C 13,8 C 13,8 C 1,1 C 86 % 93 % 1009,2 hPa 0,7 l/m 1,0 km/h (0 Bft) W-SW 247 0 min 10,4 C 13,8 C 0,0 km/h (0 Bft)
26.08.2021 04:40 12,7 C 17,7 C 13,6 C 13,8 C 13,8 C 1,1 C 86 % 93 % 1009,2 hPa 0,0 l/m 1,0 km/h (0 Bft) W 270 0 min 10,4 C 13,8 C 0,0 km/h (0 Bft)
26.08.2021 04:45 12,6 C 17,7 C 13,6 C 13,8 C 13,8 C 1,2 C 86 % 93 % 1009,2 hPa 0,0 l/m 0,8 km/h (0 Bft) S-SW 202 0 min 10,3 C 13,8 C 2,4 km/h (1 Bft)
26.08.2021 04:50 12,7 C 17,7 C 13,6 C 13,8 C 13,8 C 1,1 C 86 % 93 % 1009,2 hPa 0,0 l/m 0,8 km/h (0 Bft) SW 225 0 min 10,4 C 13,8 C 0,0 km/h (0 Bft)
26.08.2021 04:55 12,7 C 17,7 C 13,5 C 13,7 C 13,7 C 1,0 C 86 % 94 % 1009,2 hPa 0,0 l/m 1,8 km/h (1 Bft) W 270 0 min 10,4 C 13,7 C 0,0 km/h (0 Bft)
26.08.2021 05:00 12,5 C 17,7 C 13,4 C 13,6 C 13,6 C 1,1 C 86 % 94 % 1009,2 hPa 0,0 l/m 1,9 km/h (1 Bft) S 180 0 min 10,2 C 13,6 C 3,4 km/h (1 Bft)
26.08.2021 05:05 12,4 C 17,7 C 13,3 C 13,5 C 13,5 C 1,1 C 86 % 93 % 1009,2 hPa 0,0 l/m 1,1 km/h (1 Bft) SO 135 0 min 10,1 C 13,5 C 1,8 km/h (1 Bft)
26.08.2021 05:10 12,4 C 17,7 C 13,3 C 13,4 C 13,4 C 1,0 C 87 % 93 % 1009,2 hPa 0,0 l/m 1,1 km/h (1 Bft) W-NW 292 0 min 10,3 C 13,4 C 1,9 km/h (1 Bft)
26.08.2021 05:15 12,3 C 17,6 C 13,1 C 13,3 C 13,3 C 1,0 C 87 % 93 % 1009,0 hPa 0,0 l/m 1,1 km/h (1 Bft) W-NW 292 0 min 10,2 C 13,3 C 2,3 km/h (1 Bft)
26.08.2021 05:20 12,3 C 17,6 C 13,1 C 13,2 C 13,2 C 0,9 C 87 % 93 % 1009,0 hPa 0,0 l/m 1,0 km/h (0 Bft) W-SW 247 0 min 10,2 C 13,2 C 0,0 km/h (0 Bft)
26.08.2021 05:25 12,2 C 17,6 C 13,2 C 13,3 C 13,3 C 1,1 C 87 % 93 % 1009,0 hPa 0,0 l/m 0,5 km/h (0 Bft) W-SW 247 0 min 10,1 C 13,3 C 0,0 km/h (0 Bft)
26.08.2021 05:30 12,3 C 17,6 C 13,2 C 13,3 C 13,3 C 1,0 C 87 % 93 % 1009,0 hPa 0,0 l/m 0,0 km/h (0 Bft) SW 225 0 min 10,2 C 13,3 C 0,0 km/h (0 Bft)
26.08.2021 05:35 12,3 C 17,6 C 13,3 C 13,3 C 13,3 C 1,0 C 87 % 93 % 1008,9 hPa 0,0 l/m 0,8 km/h (0 Bft) S-SO 157 0 min 10,2 C 13,3 C 0,0 km/h (0 Bft)
26.08.2021 05:40 12,3 C 17,6 C 13,3 C 13,3 C 13,3 C 1,0 C 87 % 93 % 1008,9 hPa 0,0 l/m 1,4 km/h (1 Bft) SW 225 0 min 10,2 C 13,3 C 0,0 km/h (0 Bft)
26.08.2021 05:45 12,1 C 17,6 C 13,2 C 13,3 C 13,3 C 1,2 C 87 % 93 % 1008,9 hPa 0,0 l/m 1,6 km/h (1 Bft) S 180 0 min 10,0 C 13,3 C 1,6 km/h (1 Bft)
26.08.2021 05:50 12,1 C 17,6 C 13,1 C 13,2 C 13,2 C 1,1 C 87 % 93 % 1008,9 hPa 0,0 l/m 1,3 km/h (1 Bft) O-SO 112 0 min 10,0 C 13,2 C 3,4 km/h (1 Bft)
26.08.2021 05:55 12,0 C 17,6 C 13,1 C 13,1 C 13,1 C 1,1 C 87 % 93 % 1008,8 hPa 0,7 l/m 0,8 km/h (0 Bft) W 270 0 min 9,9 C 13,1 C 2,6 km/h (1 Bft)
26.08.2021 06:00 12,0 C 17,6 C 13,1 C 13,1 C 13,1 C 1,1 C 87 % 93 % 1008,8 hPa 0,0 l/m 0,8 km/h (0 Bft) W-SW 247 0 min 9,9 C 13,1 C 0,0 km/h (0 Bft)
26.08.2021 06:05 11,9 C 17,6 C 13,1 C 13,0 C 13,0 C 1,1 C 87 % 93 % 1008,8 hPa 0,0 l/m 1,0 km/h (0 Bft) NW 315 0 min 9,8 C 13,0 C 4,0 km/h (1 Bft)
26.08.2021 06:10 11,9 C 17,6 C 13,1 C 12,9 C 12,9 C 1,0 C 87 % 93 % 1008,8 hPa 0,0 l/m 0,8 km/h (0 Bft) S 180 0 min 9,8 C 12,9 C 2,4 km/h (1 Bft)
26.08.2021 06:15 11,9 C 17,6 C 13,0 C 12,9 C 12,9 C 1,0 C 87 % 93 % 1009,0 hPa 0,0 l/m 0,3 km/h (0 Bft) S-SW 202 0 min 9,8 C 12,9 C 0,0 km/h (0 Bft)
26.08.2021 06:20 11,8 C 17,6 C 13,0 C 12,9 C 12,9 C 1,1 C 87 % 93 % 1009,0 hPa 0,0 l/m 0,3 km/h (0 Bft) SW 225 0 min 9,7 C 12,9 C 0,0 km/h (0 Bft)
26.08.2021 06:25 11,7 C 17,6 C 13,0 C 12,8 C 12,8 C 1,1 C 87 % 93 % 1009,0 hPa 0,0 l/m 0,6 km/h (0 Bft) W 270 5 min 9,6 C 12,8 C 2,7 km/h (1 Bft)
26.08.2021 06:30 11,7 C 17,6 C 12,9 C 12,7 C 12,7 C 1,0 C 87 % 93 % 1009,0 hPa 0,0 l/m 0,8 km/h (0 Bft) W-SW 247 5 min 9,6 C 12,7 C 2,7 km/h (1 Bft)
26.08.2021 06:35 11,6 C 17,6 C 12,9 C 12,6 C 12,6 C 1,0 C 87 % 94 % 1008,9 hPa 0,0 l/m 0,8 km/h (0 Bft) W 270 5 min 9,5 C 12,6 C 1,8 km/h (1 Bft)
26.08.2021 06:40 11,6 C 17,6 C 12,9 C 12,6 C 12,6 C 1,0 C 87 % 94 % 1008,9 hPa 0,0 l/m 0,5 km/h (0 Bft) S 180 5 min 9,5 C 12,6 C 0,0 km/h (0 Bft)
26.08.2021 06:45 11,5 C 17,6 C 12,8 C 12,6 C 12,6 C 1,1 C 87 % 94 % 1008,9 hPa 0,0 l/m 0,3 km/h (0 Bft) W-SW 247 5 min 9,4 C 12,6 C 0,0 km/h (0 Bft)
26.08.2021 06:50 11,5 C 17,6 C 12,9 C 12,6 C 12,6 C 1,1 C 87 % 94 % 1008,9 hPa 0,0 l/m 0,0 km/h (0 Bft) W 270 5 min 9,4 C 12,6 C 0,0 km/h (0 Bft)
26.08.2021 06:55 11,5 C 17,6 C 12,9 C 12,7 C 12,7 C 1,2 C 87 % 94 % 1008,8 hPa 0,0 l/m 0,0 km/h (0 Bft) SW 225 5 min 9,4 C 12,7 C 0,0 km/h (0 Bft)
26.08.2021 07:00 11,5 C 17,6 C 13,0 C 12,9 C 12,9 C 1,4 C 87 % 94 % 1008,8 hPa 0,0 l/m 0,0 km/h (0 Bft) SW 225 5 min 9,4 C 12,9 C 0,0 km/h (0 Bft)
26.08.2021 07:05 11,5 C 17,6 C 12,9 C 12,9 C 12,9 C 1,4 C 87 % 94 % 1008,8 hPa 0,0 l/m 0,0 km/h (0 Bft) W 270 5 min 9,4 C 12,9 C 0,0 km/h (0 Bft)
26.08.2021 07:10 11,5 C 17,6 C 12,9 C 12,9 C 12,9 C 1,4 C 87 % 94 % 1008,8 hPa 0,0 l/m 0,0 km/h (0 Bft) SW 225 5 min 9,4 C 12,9 C 0,0 km/h (0 Bft)
26.08.2021 07:15 11,5 C 17,6 C 12,9 C 12,9 C 12,9 C 1,4 C 87 % 94 % 1008,7 hPa 0,0 l/m 0,2 km/h (0 Bft) W 270 0 min 9,4 C 12,9 C 2,4 km/h (1 Bft)
26.08.2021 07:20 11,5 C 17,6 C 13,0 C 13,0 C 13,0 C 1,5 C 87 % 94 % 1008,7 hPa 0,0 l/m 0,2 km/h (0 Bft) W 270 0 min 9,4 C 13,0 C 0,0 km/h (0 Bft)
26.08.2021 07:25 11,5 C 17,5 C 13,1 C 13,1 C 13,1 C 1,6 C 87 % 94 % 1008,7 hPa 0,0 l/m 0,2 km/h (0 Bft) W-SW 247 0 min 9,4 C 13,1 C 0,0 km/h (0 Bft)
26.08.2021 07:30 11,6 C 17,5 C 13,1 C 13,1 C 13,1 C 1,5 C 87 % 94 % 1008,7 hPa 0,0 l/m 0,0 km/h (0 Bft) O-NO 67 0 min 9,5 C 13,1 C 0,0 km/h (0 Bft)
26.08.2021 07:35 11,6 C 17,5 C 13,1 C 13,1 C 13,1 C 1,5 C 87 % 94 % 1008,8 hPa 0,0 l/m 0,0 km/h (0 Bft) W-SW 247 0 min 9,5 C 13,1 C 0,0 km/h (0 Bft)
26.08.2021 07:40 11,6 C 17,5 C 13,1 C 13,2 C 13,2 C 1,6 C 87 % 94 % 1008,8 hPa 0,0 l/m 0,0 km/h (0 Bft) W 270 0 min 9,5 C 13,2 C 0,0 km/h (0 Bft)
26.08.2021 07:45 11,6 C 17,5 C 13,1 C 13,3 C 13,3 C 1,7 C 87 % 94 % 1008,8 hPa 0,0 l/m 0,2 km/h (0 Bft) S-SO 157 0 min 9,5 C 13,3 C 2,3 km/h (1 Bft)
26.08.2021 07:50 11,6 C 17,5 C 13,1 C 13,3 C 13,3 C 1,7 C 87 % 94 % 1008,8 hPa 0,0 l/m 0,8 km/h (0 Bft) S-SO 157 0 min 9,5 C 13,3 C 4,0 km/h (1 Bft)
26.08.2021 07:55 11,6 C 17,5 C 13,1 C 13,3 C 13,3 C 1,7 C 87 % 94 % 1008,9 hPa 0,0 l/m 0,8 km/h (0 Bft) SW 225 0 min 9,5 C 13,3 C 0,0 km/h (0 Bft)
26.08.2021 08:00 11,6 C 17,5 C 13,2 C 13,3 C 13,3 C 1,7 C 87 % 94 % 1008,9 hPa 0,0 l/m 0,8 km/h (0 Bft) SW 225 0 min 9,5 C 13,3 C 1,6 km/h (1 Bft)
26.08.2021 08:05 11,6 C 17,5 C 13,1 C 13,3 C 13,3 C 1,7 C 87 % 94 % 1008,9 hPa 0,0 l/m 1,1 km/h (1 Bft) N-NO 22 0 min 9,5 C 13,3 C 4,8 km/h (1 Bft)
26.08.2021 08:10 11,6 C 17,5 C 13,2 C 13,3 C 13,3 C 1,7 C 87 % 93 % 1008,9 hPa 0,0 l/m 0,8 km/h (0 Bft) SW 225 0 min 9,5 C 13,3 C 3,5 km/h (1 Bft)
26.08.2021 08:15 11,7 C 17,5 C 13,3 C 13,4 C 13,4 C 1,7 C 87 % 93 % 1008,9 hPa 0,0 l/m 1,3 km/h (1 Bft) SW 225 0 min 9,6 C 13,4 C 0,0 km/h (0 Bft)
26.08.2021 08:20 11,7 C 17,5 C 13,3 C 13,6 C 13,6 C 1,9 C 87 % 93 % 1008,9 hPa 0,0 l/m 1,4 km/h (1 Bft) S-SW 202 0 min 9,6 C 13,6 C 1,8 km/h (1 Bft)
26.08.2021 08:25 11,7 C 17,5 C 13,3 C 13,7 C 13,7 C 2,0 C 87 % 93 % 1008,9 hPa 0,0 l/m 0,8 km/h (0 Bft) S-SW 202 0 min 9,6 C 13,7 C 0,0 km/h (0 Bft)
26.08.2021 08:30 11,7 C 17,5 C 13,3 C 13,7 C 13,7 C 2,0 C 87 % 93 % 1008,9 hPa 0,0 l/m 1,0 km/h (0 Bft) S-SO 157 0 min 9,6 C 13,7 C 1,8 km/h (1 Bft)
26.08.2021 08:35 11,8 C 17,5 C 13,3 C 13,8 C 13,8 C 2,0 C 87 % 93 % 1008,9 hPa 0,0 l/m 1,0 km/h (0 Bft) W-SW 247 0 min 9,7 C 13,8 C 0,0 km/h (0 Bft)
26.08.2021 08:40 11,8 C 17,5 C 13,4 C 14,1 C 14,1 C 2,3 C 87 % 94 % 1008,9 hPa 0,0 l/m 0,8 km/h (0 Bft) SW 225 0 min 9,7 C 14,1 C 2,4 km/h (1 Bft)
26.08.2021 08:45 11,9 C 17,5 C 13,5 C 14,3 C 14,3 C 2,4 C 87 % 94 % 1008,9 hPa 0,0 l/m 0,8 km/h (0 Bft) SO 135 0 min 9,8 C 14,3 C 4,3 km/h (1 Bft)
26.08.2021 08:50 11,9 C 17,5 C 13,5 C 14,4 C 14,4 C 2,5 C 87 % 94 % 1008,9 hPa 0,0 l/m 1,1 km/h (1 Bft) W 270 0 min 9,8 C 14,4 C 2,7 km/h (1 Bft)
26.08.2021 08:55 11,9 C 17,4 C 13,5 C 14,6 C 14,6 C 2,7 C 87 % 94 % 1009,1 hPa 0,0 l/m 0,8 km/h (0 Bft) S-SW 202 0 min 9,8 C 14,6 C 2,3 km/h (1 Bft)
26.08.2021 09:00 11,9 C 17,5 C 13,5 C 14,6 C 14,6 C 2,7 C 87 % 94 % 1009,1 hPa 0,0 l/m 0,5 km/h (0 Bft) W-SW 247 0 min 9,8 C 14,6 C 1,8 km/h (1 Bft)
26.08.2021 09:05 12,0 C 17,4 C 13,5 C 14,6 C 14,6 C 2,6 C 87 % 94 % 1009,1 hPa 0,0 l/m 1,1 km/h (1 Bft) S 180 0 min 9,9 C 14,6 C 2,9 km/h (1 Bft)
26.08.2021 09:10 12,0 C 17,4 C 13,5 C 14,8 C 14,8 C 2,8 C 87 % 94 % 1009,1 hPa 0,0 l/m 1,0 km/h (0 Bft) W-NW 292 0 min 9,9 C 14,8 C 2,1 km/h (1 Bft)
26.08.2021 09:15 12,0 C 17,4 C 13,6 C 15,0 C 15,0 C 3,0 C 87 % 94 % 1009,1 hPa 0,0 l/m 0,6 km/h (0 Bft) S-SW 202 0 min 9,9 C 15,0 C 3,7 km/h (1 Bft)
26.08.2021 09:20 12,0 C 17,4 C 13,7 C 15,1 C 15,1 C 3,1 C 87 % 94 % 1009,1 hPa 0,0 l/m 1,0 km/h (0 Bft) W-SW 247 0 min 9,9 C 15,1 C 0,0 km/h (0 Bft)
26.08.2021 09:25 12,0 C 17,4 C 13,5 C 14,9 C 14,9 C 2,9 C 87 % 94 % 1009,1 hPa 0,0 l/m 1,6 km/h (1 Bft) SW 225 0 min 9,9 C 14,9 C 3,7 km/h (1 Bft)
26.08.2021 09:30 12,0 C 17,4 C 13,5 C 14,8 C 14,8 C 2,8 C 87 % 94 % 1009,1 hPa 0,0 l/m 2,1 km/h (1 Bft) S-SO 157 0 min 9,9 C 14,8 C 2,4 km/h (1 Bft)
26.08.2021 09:35 12,1 C 17,4 C 13,6 C 14,6 C 14,6 C 2,5 C 87 % 94 % 1009,1 hPa 0,0 l/m 2,3 km/h (1 Bft) SW 225 0 min 10,0 C 14,6 C 3,1 km/h (1 Bft)
26.08.2021 09:40 12,1 C 17,4 C 13,7 C 14,7 C 14,7 C 2,6 C 87 % 94 % 1009,1 hPa 0,0 l/m 1,9 km/h (1 Bft) W 270 0 min 10,0 C 14,7 C 1,8 km/h (1 Bft)
26.08.2021 09:45 12,1 C 17,4 C 13,7 C 14,7 C 14,7 C 2,6 C 87 % 93 % 1009,1 hPa 0,0 l/m 1,6 km/h (1 Bft) S 180 0 min 10,0 C 14,7 C 3,7 km/h (1 Bft)
26.08.2021 09:50 12,1 C 17,4 C 13,7 C 14,6 C 14,6 C 2,5 C 87 % 93 % 1009,1 hPa 0,0 l/m 1,9 km/h (1 Bft) W-SW 247 0 min 10,0 C 14,6 C 2,7 km/h (1 Bft)
26.08.2021 09:55 12,1 C 17,4 C 13,8 C 14,5 C 14,5 C 2,4 C 87 % 93 % 1009,1 hPa 0,0 l/m 1,8 km/h (1 Bft) S-SW 202 0 min 10,0 C 14,5 C 10,0 km/h (2 Bft)
26.08.2021 10:00 12,3 C 17,4 C 13,8 C 14,8 C 14,8 C 2,5 C 87 % 93 % 1009,1 hPa 0,0 l/m 1,1 km/h (1 Bft) S 180 0 min 10,2 C 14,8 C 0,0 km/h (0 Bft)
26.08.2021 10:05 12,2 C 17,4 C 13,9 C 15,1 C 15,1 C 2,9 C 87 % 93 % 1009,1 hPa 0,0 l/m 0,8 km/h (0 Bft) SW 225 0 min 10,1 C 15,1 C 1,9 km/h (1 Bft)
26.08.2021 10:10 12,2 C 17,4 C 13,9 C 15,4 C 15,4 C 3,2 C 87 % 93 % 1009,1 hPa 0,0 l/m 1,1 km/h (1 Bft) W 270 0 min 10,1 C 15,4 C 2,7 km/h (1 Bft)
26.08.2021 10:15 12,3 C 17,4 C 14,0 C 15,5 C 15,5 C 3,2 C 87 % 93 % 1009,2 hPa 0,0 l/m 1,4 km/h (1 Bft) SW 225 0 min 10,2 C 15,5 C 1,8 km/h (1 Bft)
26.08.2021 10:20 12,4 C 17,4 C 14,0 C 15,6 C 15,6 C 3,2 C 87 % 93 % 1009,2 hPa 0,0 l/m 1,0 km/h (0 Bft) W 270 0 min 10,3 C 15,6 C 0,0 km/h (0 Bft)
26.08.2021 10:25 12,4 C 17,3 C 13,9 C 15,5 C 15,5 C 3,1 C 87 % 93 % 1009,2 hPa 0,0 l/m 1,0 km/h (0 Bft) S-SW 202 0 min 10,3 C 15,5 C 0,0 km/h (0 Bft)
26.08.2021 10:30 12,4 C 17,3 C 13,9 C 15,4 C 15,4 C 3,0 C 87 % 93 % 1009,2 hPa 0,0 l/m 1,1 km/h (1 Bft) N 360 0 min 10,3 C 15,4 C 0,0 km/h (0 Bft)
26.08.2021 10:35 12,4 C 17,3 C 14,0 C 15,4 C 15,4 C 3,0 C 87 % 93 % 1009,2 hPa 0,0 l/m 1,8 km/h (1 Bft) S 180 0 min 10,3 C 15,4 C 1,8 km/h (1 Bft)
26.08.2021 10:40 12,4 C 17,3 C 14,1 C 15,7 C 15,7 C 3,3 C 87 % 93 % 1009,2 hPa 0,0 l/m 1,4 km/h (1 Bft) S-SW 202 5 min 10,3 C 15,7 C 0,0 km/h (0 Bft)
26.08.2021 10:45 12,7 C 17,3 C 14,4 C 16,6 C 16,6 C 3,9 C 87 % 93 % 1009,2 hPa 0,0 l/m 1,0 km/h (0 Bft) SW 225 5 min 10,6 C 16,6 C 0,0 km/h (0 Bft)
26.08.2021 10:50 12,7 C 17,2 C 14,7 C 17,3 C 17,3 C 4,6 C 87 % 93 % 1009,2 hPa 0,0 l/m 0,8 km/h (0 Bft) S-SW 202 5 min 10,6 C 17,3 C 2,4 km/h (1 Bft)
26.08.2021 10:55 12,9 C 17,3 C 14,7 C 17,9 C 17,9 C 5,0 C 87 % 92 % 1009,2 hPa 0,0 l/m 0,8 km/h (0 Bft) SW 225 5 min 10,8 C 17,9 C 2,6 km/h (1 Bft)
26.08.2021 11:00 13,1 C 17,2 C 14,7 C 17,9 C 17,9 C 4,8 C 87 % 92 % 1009,2 hPa 0,0 l/m 1,1 km/h (1 Bft) W-SW 247 5 min 11,0 C 17,9 C 3,7 km/h (1 Bft)
26.08.2021 11:05 13,1 C 17,2 C 14,5 C 17,2 C 17,2 C 4,1 C 87 % 92 % 1009,2 hPa 0,0 l/m 1,4 km/h (1 Bft) S 180 5 min 11,0 C 17,2 C 4,8 km/h (1 Bft)
26.08.2021 11:10 13,1 C 17,2 C 14,5 C 17,0 C 17,0 C 3,9 C 87 % 92 % 1009,2 hPa 0,0 l/m 1,4 km/h (1 Bft) S 180 5 min 11,0 C 17,0 C 1,9 km/h (1 Bft)
26.08.2021 11:15 13,2 C 17,1 C 15,1 C 16,8 C 16,8 C 3,6 C 87 % 92 % 1009,2 hPa 0,0 l/m 1,8 km/h (1 Bft) S 180 5 min 11,1 C 16,8 C 2,7 km/h (1 Bft)
26.08.2021 11:20 13,2 C 17,1 C 15,5 C 17,0 C 17,0 C 3,8 C 87 % 91 % 1009,2 hPa 0,0 l/m 2,4 km/h (1 Bft) S 180 5 min 11,1 C 17,0 C 3,2 km/h (1 Bft)
26.08.2021 11:25 13,6 C 17,0 C 16,8 C 17,5 C 17,5 C 3,9 C 86 % 89 % 1009,2 hPa 0,0 l/m 2,9 km/h (1 Bft) W-SW 247 5 min 11,3 C 17,5 C 11,9 km/h (2 Bft)
26.08.2021 11:30 13,9 C 17,0 C 17,5 C 18,2 C 18,2 C 4,3 C 86 % 87 % 1009,2 hPa 0,0 l/m 2,7 km/h (1 Bft) S 180 5 min 11,6 C 18,2 C 2,4 km/h (1 Bft)
26.08.2021 11:35 14,4 C 16,9 C 17,7 C 18,6 C 18,6 C 4,2 C 86 % 85 % 1008,9 hPa 0,0 l/m 2,3 km/h (1 Bft) W-SW 247 5 min 12,1 C 18,6 C 1,9 km/h (1 Bft)
26.08.2021 11:40 14,7 C 16,9 C 17,2 C 18,8 C 18,8 C 4,1 C 87 % 84 % 1008,9 hPa 0,0 l/m 2,1 km/h (1 Bft) W-SW 247 5 min 12,6 C 18,8 C 1,9 km/h (1 Bft)
26.08.2021 11:45 15,1 C 16,9 C 16,9 C 19,0 C 19,0 C 3,9 C 87 % 85 % 1008,9 hPa 0,0 l/m 1,4 km/h (1 Bft) S-SW 202 5 min 13,0 C 19,0 C 2,3 km/h (1 Bft)
26.08.2021 11:50 15,2 C 16,9 C 17,0 C 19,3 C 19,3 C 4,1 C 86 % 85 % 1008,9 hPa 0,0 l/m 1,3 km/h (1 Bft) S 180 5 min 12,9 C 19,3 C 4,7 km/h (1 Bft)
26.08.2021 11:55 15,5 C 16,9 C 17,2 C 19,4 C 19,4 C 3,9 C 86 % 85 % 1009,1 hPa 0,0 l/m 1,9 km/h (1 Bft) S 180 5 min 13,2 C 19,4 C 1,6 km/h (1 Bft)
26.08.2021 12:00 15,7 C 16,9 C 17,5 C 19,9 C 19,9 C 4,2 C 86 % 84 % 1009,1 hPa 0,0 l/m 2,6 km/h (1 Bft) S 180 5 min 13,4 C 19,9 C 10,3 km/h (2 Bft)
26.08.2021 12:05 16,0 C 16,9 C 17,8 C 20,5 C 20,5 C 4,5 C 85 % 83 % 1009,1 hPa 0,0 l/m 2,9 km/h (1 Bft) W-SW 247 5 min 13,5 C 20,5 C 2,6 km/h (1 Bft)
26.08.2021 12:10 16,3 C 16,9 C 18,0 C 21,1 C 21,1 C 4,8 C 85 % 82 % 1009,1 hPa 0,0 l/m 3,1 km/h (1 Bft) S-SO 157 5 min 13,8 C 21,1 C 5,6 km/h (1 Bft)
26.08.2021 12:15 16,5 C 16,9 C 17,7 C 21,6 C 21,6 C 5,1 C 84 % 81 % 1008,8 hPa 0,0 l/m 2,6 km/h (1 Bft) S 180 5 min 13,8 C 21,6 C 2,4 km/h (1 Bft)
26.08.2021 12:20 16,5 C 16,9 C 17,4 C 21,5 C 21,5 C 5,0 C 83 % 81 % 1008,8 hPa 0,0 l/m 2,6 km/h (1 Bft) W-SW 247 5 min 13,6 C 21,5 C 5,5 km/h (1 Bft)
26.08.2021 12:25 16,3 C 16,9 C 17,2 C 20,9 C 20,9 C 4,6 C 82 % 81 % 1008,8 hPa 0,0 l/m 2,9 km/h (1 Bft) NO 45 5 min 13,2 C 20,9 C 2,7 km/h (1 Bft)
26.08.2021 12:30 16,3 C 16,9 C 17,0 C 20,8 C 20,8 C 4,5 C 81 % 81 % 1008,8 hPa 0,0 l/m 3,2 km/h (1 Bft) W-SW 247 5 min 13,0 C 20,8 C 5,0 km/h (1 Bft)
26.08.2021 12:35 16,2 C 16,9 C 16,7 C 20,3 C 20,3 C 4,1 C 81 % 81 % 1008,9 hPa 0,0 l/m 3,4 km/h (1 Bft) W-SW 247 5 min 12,9 C 20,3 C 4,2 km/h (1 Bft)
26.08.2021 12:40 16,2 C 16,9 C 16,7 C 20,1 C 20,1 C 3,9 C 81 % 81 % 1008,9 hPa 0,0 l/m 3,2 km/h (1 Bft) W-SW 247 5 min 12,9 C 20,1 C 1,6 km/h (1 Bft)
26.08.2021 12:45 16,3 C 16,9 C 16,8 C 20,6 C 20,6 C 4,3 C 81 % 81 % 1008,9 hPa 0,0 l/m 3,2 km/h (1 Bft) S-SW 202 5 min 13,0 C 20,6 C 2,3 km/h (1 Bft)
26.08.2021 12:50 16,5 C 16,9 C 17,0 C 21,2 C 21,2 C 4,7 C 81 % 82 % 1008,9 hPa 0,0 l/m 3,1 km/h (1 Bft) S 180 5 min 13,2 C 21,2 C 2,1 km/h (1 Bft)
26.08.2021 12:55 16,5 C 16,9 C 16,9 C 21,0 C 21,0 C 4,5 C 80 % 81 % 1008,9 hPa 0,0 l/m 2,6 km/h (1 Bft) S 180 5 min 13,0 C 21,0 C 2,6 km/h (1 Bft)
26.08.2021 13:00 16,4 C 16,9 C 16,8 C 20,6 C 20,6 C 4,2 C 80 % 81 % 1008,9 hPa 0,0 l/m 3,1 km/h (1 Bft) S 180 5 min 12,9 C 20,6 C 9,0 km/h (2 Bft)
26.08.2021 13:05 16,3 C 16,9 C 16,7 C 20,1 C 20,1 C 3,8 C 79 % 81 % 1008,9 hPa 0,0 l/m 4,2 km/h (1 Bft) SW 225 5 min 12,6 C 20,1 C 14,6 km/h (3 Bft)
26.08.2021 13:10 16,3 C 16,9 C 16,4 C 19,0 C 19,0 C 2,7 C 79 % 81 % 1008,9 hPa 0,0 l/m 4,0 km/h (1 Bft) W 270 0 min 12,6 C 19,0 C 5,1 km/h (1 Bft)
26.08.2021 13:15 16,0 C 16,9 C 16,1 C 17,9 C 17,9 C 1,9 C 79 % 81 % 1008,9 hPa 0,0 l/m 2,6 km/h (1 Bft) SW 225 0 min 12,4 C 17,9 C 2,4 km/h (1 Bft)
26.08.2021 13:20 16,0 C 17,0 C 16,0 C 16,9 C 16,9 C 0,9 C 81 % 83 % 1008,9 hPa 0,0 l/m 1,9 km/h (1 Bft) SW 225 0 min 12,7 C 16,9 C 0,0 km/h (0 Bft)
26.08.2021 13:25 16,0 C 17,0 C 16,5 C 17,6 C 17,6 C 1,6 C 82 % 85 % 1008,9 hPa 0,0 l/m 1,3 km/h (1 Bft) SW 225 0 min 12,9 C 17,6 C 4,3 km/h (1 Bft)
26.08.2021 13:30 16,3 C 16,9 C 16,9 C 19,5 C 19,5 C 3,2 C 83 % 85 % 1008,9 hPa 0,0 l/m 1,4 km/h (1 Bft) SW 225 0 min 13,4 C 19,5 C 2,6 km/h (1 Bft)
26.08.2021 13:35 16,5 C 16,9 C 16,8 C 20,6 C 20,6 C 4,1 C 82 % 83 % 1008,9 hPa 0,0 l/m 2,1 km/h (1 Bft) SW 225 5 min 13,4 C 20,6 C 1,9 km/h (1 Bft)
26.08.2021 13:40 16,6 C 16,9 C 16,9 C 21,4 C 21,4 C 4,8 C 81 % 82 % 1008,9 hPa 0,0 l/m 1,9 km/h (1 Bft) NW 315 5 min 13,3 C 21,4 C 0,0 km/h (0 Bft)
26.08.2021 13:45 16,9 C 16,9 C 16,9 C 22,1 C 22,1 C 5,2 C 80 % 82 % 1008,9 hPa 0,0 l/m 1,6 km/h (1 Bft) SW 225 5 min 13,4 C 22,1 C 5,5 km/h (1 Bft)
26.08.2021 13:50 17,0 C 16,9 C 17,1 C 22,3 C 22,3 C 5,3 C 80 % 82 % 1008,9 hPa 0,0 l/m 1,6 km/h (1 Bft) S 180 5 min 13,5 C 22,3 C 4,3 km/h (1 Bft)
26.08.2021 13:55 17,2 C 16,9 C 17,1 C 22,2 C 22,2 C 5,0 C 78 % 81 % 1008,9 hPa 0,0 l/m 2,4 km/h (1 Bft) W-SW 247 5 min 13,3 C 22,2 C 2,3 km/h (1 Bft)
26.08.2021 14:00 17,3 C 16,9 C 17,4 C 22,9 C 22,9 C 5,6 C 78 % 81 % 1008,9 hPa 0,0 l/m 2,4 km/h (1 Bft) S-SW 202 5 min 13,4 C 22,9 C 4,2 km/h (1 Bft)
26.08.2021 14:05 17,6 C 16,9 C 17,3 C 22,8 C 22,8 C 5,2 C 77 % 80 % 1008,9 hPa 0,0 l/m 2,7 km/h (1 Bft) S-SW 202 5 min 13,5 C 22,8 C 3,1 km/h (1 Bft)
26.08.2021 14:10 17,4 C 16,9 C 17,1 C 22,0 C 22,0 C 4,6 C 76 % 80 % 1008,9 hPa 0,0 l/m 3,4 km/h (1 Bft) SW 225 5 min 13,1 C 22,0 C 5,8 km/h (2 Bft)
26.08.2021 14:15 17,2 C 16,9 C 17,0 C 21,0 C 21,0 C 3,8 C 76 % 80 % 1008,8 hPa 0,0 l/m 3,5 km/h (1 Bft) W-SW 247 5 min 12,9 C 21,0 C 2,7 km/h (1 Bft)
26.08.2021 14:20 17,4 C 16,9 C 17,5 C 22,0 C 22,0 C 4,6 C 76 % 81 % 1008,8 hPa 0,0 l/m 3,4 km/h (1 Bft) S 180 5 min 13,1 C 22,0 C 3,9 km/h (1 Bft)
26.08.2021 14:25 18,2 C 16,9 C 18,0 C 23,7 C 23,7 C 5,5 C 76 % 80 % 1008,8 hPa 0,0 l/m 2,9 km/h (1 Bft) S 180 5 min 13,9 C 23,7 C 8,0 km/h (2 Bft)
26.08.2021 14:30 18,4 C 16,9 C 18,1 C 24,6 C 24,6 C 6,2 C 75 % 78 % 1008,8 hPa 0,0 l/m 3,1 km/h (1 Bft) S 180 5 min 13,9 C 24,6 C 4,0 km/h (1 Bft)
26.08.2021 14:35 18,2 C 16,9 C 18,0 C 24,5 C 24,5 C 6,3 C 71 % 77 % 1008,8 hPa 0,0 l/m 3,9 km/h (1 Bft) SO 135 5 min 12,9 C 24,5 C 4,5 km/h (1 Bft)
26.08.2021 14:40 18,1 C 16,9 C 18,0 C 24,5 C 24,5 C 6,4 C 71 % 76 % 1008,8 hPa 0,0 l/m 3,9 km/h (1 Bft) W-SW 247 5 min 12,8 C 24,5 C 2,7 km/h (1 Bft)
26.08.2021 14:45 18,1 C 16,9 C 18,0 C 24,2 C 24,2 C 6,1 C 72 % 76 % 1008,8 hPa 0,0 l/m 3,2 km/h (1 Bft) SW 225 5 min 13,0 C 24,2 C 3,7 km/h (1 Bft)
26.08.2021 14:50 18,1 C 16,9 C 17,7 C 23,4 C 23,4 C 5,3 C 70 % 74 % 1008,8 hPa 0,0 l/m 3,2 km/h (1 Bft) SO 135 5 min 12,5 C 23,4 C 4,2 km/h (1 Bft)
26.08.2021 14:55 17,7 C 16,9 C 17,4 C 22,1 C 22,1 C 4,4 C 70 % 74 % 1008,2 hPa 0,0 l/m 3,7 km/h (1 Bft) W 270 5 min 12,2 C 22,1 C 2,9 km/h (1 Bft)
26.08.2021 15:00 17,6 C 16,9 C 17,2 C 21,3 C 21,3 C 3,7 C 69 % 73 % 1008,2 hPa 0,0 l/m 3,7 km/h (1 Bft) W 270 5 min 11,8 C 21,3 C 3,5 km/h (1 Bft)
26.08.2021 15:05 17,7 C 16,9 C 17,5 C 21,2 C 21,2 C 3,5 C 71 % 76 % 1008,2 hPa 0,0 l/m 3,5 km/h (1 Bft) W-SW 247 5 min 12,4 C 21,2 C 10,9 km/h (2 Bft)
26.08.2021 15:10 17,9 C 16,9 C 17,6 C 21,3 C 21,3 C 3,4 C 71 % 76 % 1008,2 hPa 0,0 l/m 3,7 km/h (1 Bft) SW 225 5 min 12,6 C 21,3 C 5,1 km/h (1 Bft)
26.08.2021 15:15 17,9 C 17,0 C 17,5 C 21,4 C 21,4 C 3,5 C 71 % 76 % 1008,2 hPa 0,0 l/m 3,9 km/h (1 Bft) W-SW 247 5 min 12,6 C 21,4 C 2,6 km/h (1 Bft)
26.08.2021 15:20 17,9 C 17,0 C 17,4 C 21,1 C 21,1 C 3,2 C 72 % 76 % 1008,2 hPa 0,0 l/m 3,2 km/h (1 Bft) S-SW 202 0 min 12,8 C 21,1 C 1,9 km/h (1 Bft)
26.08.2021 15:25 17,6 C 17,0 C 17,1 C 20,1 C 20,1 C 2,5 C 73 % 77 % 1008,2 hPa 0,0 l/m 2,4 km/h (1 Bft) S 180 0 min 12,7 C 20,1 C 3,2 km/h (1 Bft)
26.08.2021 15:30 17,5 C 17,0 C 16,8 C 19,3 C 19,3 C 1,8 C 73 % 78 % 1008,2 hPa 0,0 l/m 2,4 km/h (1 Bft) SW 225 0 min 12,6 C 19,3 C 4,5 km/h (1 Bft)
26.08.2021 15:35 17,1 C 17,0 C 16,6 C 18,5 C 18,5 C 1,4 C 74 % 78 % 1008,3 hPa 0,0 l/m 3,1 km/h (1 Bft) S 180 0 min 12,4 C 18,5 C 4,0 km/h (1 Bft)
26.08.2021 15:40 17,0 C 17,0 C 16,3 C 18,0 C 18,0 C 1,0 C 73 % 78 % 1008,3 hPa 0,0 l/m 3,1 km/h (1 Bft) SW 225 0 min 12,1 C 18,0 C 4,5 km/h (1 Bft)
26.08.2021 15:45 16,8 C 17,0 C 16,2 C 17,5 C 17,5 C 0,7 C 74 % 78 % 1008,3 hPa 0,0 l/m 3,1 km/h (1 Bft) S-SW 202 0 min 12,1 C 17,5 C 8,5 km/h (2 Bft)
26.08.2021 15:50 16,7 C 17,0 C 16,0 C 16,7 C 16,6 C 0,0 C 75 % 79 % 1008,3 hPa 0,0 l/m 3,2 km/h (1 Bft) W 270 0 min 12,2 C 16,6 C 5,8 km/h (2 Bft)
26.08.2021 15:55 15,6 C 17,1 C 14,2 C 15,1 C 14,1 C 0,0 C 73 % 79 % 1009,4 hPa 0,0 l/m 5,6 km/h (1 Bft) N 360 0 min 10,8 C 14,1 C 20,1 km/h (4 Bft)
26.08.2021 16:00 14,7 C 17,2 C 13,5 C 14,2 C 13,1 C 0,0 C 75 % 82 % 1009,4 hPa 0,7 l/m 5,6 km/h (1 Bft) S-SW 202 0 min 10,3 C 13,1 C 1,6 km/h (1 Bft)
26.08.2021 16:05 14,1 C 17,2 C 13,1 C 13,6 C 12,6 C 0,0 C 77 % 84 % 1009,4 hPa 0,0 l/m 2,6 km/h (1 Bft) W-SW 247 0 min 10,1 C 12,6 C 6,1 km/h (2 Bft)
26.08.2021 16:10 13,9 C 17,2 C 12,9 C 13,4 C 12,3 C 0,0 C 78 % 85 % 1009,4 hPa 0,0 l/m 2,1 km/h (1 Bft) W 270 0 min 10,1 C 12,3 C 3,7 km/h (1 Bft)
26.08.2021 16:15 13,5 C 17,2 C 12,5 C 13,0 C 12,1 C 0,0 C 79 % 86 % 1009,3 hPa 0,0 l/m 2,7 km/h (1 Bft) SO 135 0 min 9,9 C 12,1 C 0,0 km/h (0 Bft)
26.08.2021 16:20 13,3 C 17,2 C 12,6 C 12,9 C 12,1 C 0,0 C 80 % 87 % 1009,3 hPa 0,0 l/m 1,8 km/h (1 Bft) N-NW 337 0 min 9,9 C 12,1 C 0,0 km/h (0 Bft)
26.08.2021 16:25 13,2 C 17,3 C 12,6 C 12,8 C 12,0 C 0,0 C 82 % 88 % 1009,3 hPa 0,0 l/m 0,5 km/h (0 Bft) W 270 0 min 10,2 C 12,0 C 0,0 km/h (0 Bft)
26.08.2021 16:30 13,1 C 17,3 C 12,6 C 12,8 C 12,1 C 0,0 C 82 % 88 % 1009,3 hPa 0,0 l/m 1,1 km/h (1 Bft) W-SW 247 0 min 10,1 C 12,1 C 0,0 km/h (0 Bft)
26.08.2021 16:35 13,0 C 17,3 C 12,4 C 12,7 C 12,1 C 0,0 C 83 % 88 % 1009,6 hPa 0,0 l/m 1,0 km/h (0 Bft) W-SW 247 0 min 10,2 C 12,1 C 0,0 km/h (0 Bft)
26.08.2021 16:40 12,9 C 17,3 C 12,3 C 12,6 C 12,1 C 0,0 C 83 % 89 % 1009,6 hPa 0,0 l/m 0,8 km/h (0 Bft) N-NW 337 0 min 10,1 C 12,1 C 3,1 km/h (1 Bft)
26.08.2021 16:45 12,8 C 17,3 C 12,2 C 12,6 C 12,1 C 0,0 C 84 % 90 % 1009,6 hPa 0,0 l/m 0,5 km/h (0 Bft) NW 315 0 min 10,2 C 12,1 C 0,0 km/h (0 Bft)
26.08.2021 16:50 12,9 C 17,3 C 12,3 C 12,6 C 12,1 C 0,0 C 85 % 90 % 1009,6 hPa 0,7 l/m 0,2 km/h (0 Bft) NW 315 0 min 10,4 C 12,1 C 0,0 km/h (0 Bft)
26.08.2021 16:55 12,8 C 17,3 C 12,2 C 12,6 C 12,3 C 0,0 C 85 % 90 % 1009,3 hPa 0,0 l/m 0,0 km/h (0 Bft) NW 315 0 min 10,3 C 12,3 C 0,0 km/h (0 Bft)
26.08.2021 17:00 12,9 C 17,3 C 12,3 C 12,7 C 12,4 C 0,0 C 85 % 90 % 1009,3 hPa 0,0 l/m 0,0 km/h (0 Bft) NW 315 0 min 10,4 C 12,4 C 0,0 km/h (0 Bft)
26.08.2021 17:05 12,9 C 17,3 C 12,4 C 12,8 C 12,7 C 0,0 C 86 % 91 % 1009,3 hPa 0,0 l/m 0,0 km/h (0 Bft) NW 315 0 min 10,6 C 12,7 C 0,0 km/h (0 Bft)
26.08.2021 17:10 12,9 C 17,3 C 12,5 C 12,9 C 12,9 C 0,0 C 86 % 91 % 1009,3 hPa 0,0 l/m 0,0 km/h (0 Bft) NW 315 0 min 10,6 C 12,9 C 0,0 km/h (0 Bft)
26.08.2021 17:15 13,0 C 17,3 C 12,6 C 13,1 C 13,1 C 0,1 C 86 % 91 % 1009,4 hPa 0,0 l/m 0,0 km/h (0 Bft) SW 225 0 min 10,7 C 13,1 C 0,0 km/h (0 Bft)
26.08.2021 17:20 13,1 C 17,3 C 12,6 C 13,1 C 13,1 C 0,0 C 86 % 92 % 1009,4 hPa 0,0 l/m 0,0 km/h (0 Bft) S 180 0 min 10,8 C 13,1 C 0,0 km/h (0 Bft)
26.08.2021 17:25 13,1 C 17,3 C 12,6 C 13,1 C 13,0 C 0,0 C 86 % 92 % 1009,4 hPa 0,0 l/m 0,0 km/h (0 Bft) S-SW 202 0 min 10,8 C 13,0 C 0,0 km/h (0 Bft)
26.08.2021 17:30 13,1 C 17,3 C 12,6 C 13,1 C 13,0 C 0,0 C 86 % 92 % 1009,4 hPa 0,0 l/m 0,0 km/h (0 Bft) O-SO 112 0 min 10,8 C 13,0 C 0,0 km/h (0 Bft)
26.08.2021 17:35 13,1 C 17,3 C 12,7 C 13,1 C 13,1 C 0,0 C 87 % 92 % 1009,5 hPa 0,0 l/m 0,0 km/h (0 Bft) S-SO 157 0 min 11,0 C 13,1 C 0,0 km/h (0 Bft)
26.08.2021 17:40 13,1 C 17,3 C 12,6 C 13,0 C 12,9 C 0,0 C 87 % 92 % 1009,5 hPa 0,0 l/m 0,0 km/h (0 Bft) S-SO 157 0 min 11,0 C 12,9 C 0,0 km/h (0 Bft)
26.08.2021 17:45 13,0 C 17,3 C 12,6 C 12,9 C 12,8 C 0,0 C 87 % 92 % 1009,5 hPa 0,0 l/m 0,0 km/h (0 Bft) S 180 0 min 10,9 C 12,8 C 0,0 km/h (0 Bft)
26.08.2021 17:50 12,9 C 17,3 C 12,5 C 12,8 C 12,6 C 0,0 C 87 % 92 % 1009,5 hPa 0,0 l/m 0,0 km/h (0 Bft) W-SW 247 0 min 10,8 C 12,6 C 0,0 km/h (0 Bft)
26.08.2021 17:55 12,8 C 17,3 C 12,5 C 12,7 C 12,6 C 0,0 C 86 % 92 % 1009,6 hPa 0,0 l/m 0,0 km/h (0 Bft) W-SW 247 0 min 10,5 C 12,6 C 0,0 km/h (0 Bft)
26.08.2021 18:00 12,8 C 17,3 C 12,5 C 12,8 C 12,7 C 0,0 C 86 % 92 % 1009,6 hPa 0,0 l/m 0,0 km/h (0 Bft) W-NW 292 0 min 10,5 C 12,7 C 0,0 km/h (0 Bft)
26.08.2021 18:05 12,8 C 17,3 C 12,5 C 12,7 C 12,6 C 0,0 C 87 % 92 % 1009,6 hPa 0,0 l/m 0,0 km/h (0 Bft) W-NW 292 0 min 10,7 C 12,6 C 0,0 km/h (0 Bft)
26.08.2021 18:10 12,9 C 17,3 C 12,6 C 12,8 C 12,6 C 0,0 C 87 % 92 % 1009,6 hPa 0,0 l/m 0,0 km/h (0 Bft) S-SO 157 0 min 10,8 C 12,6 C 0,0 km/h (0 Bft)
26.08.2021 18:15 12,8 C 17,3 C 12,6 C 12,7 C 12,6 C 0,0 C 87 % 92 % 1009,7 hPa 0,0 l/m 0,2 km/h (0 Bft) O-SO 112 0 min 10,7 C 12,6 C 0,0 km/h (0 Bft)
26.08.2021 18:20 12,8 C 17,3 C 12,6 C 12,7 C 12,6 C 0,0 C 87 % 92 % 1009,7 hPa 0,0 l/m 0,0 km/h (0 Bft) S 180 0 min 10,7 C 12,6 C 0,0 km/h (0 Bft)
26.08.2021 18:25 12,7 C 17,3 C 12,6 C 12,7 C 12,6 C 0,0 C 87 % 93 % 1009,7 hPa 0,0 l/m 0,2 km/h (0 Bft) S 180 0 min 10,6 C 12,6 C 0,0 km/h (0 Bft)
26.08.2021 18:30 12,7 C 17,3 C 12,6 C 12,6 C 12,5 C 0,0 C 87 % 92 % 1009,7 hPa 0,0 l/m 0,2 km/h (0 Bft) W-SW 247 0 min 10,6 C 12,5 C 0,0 km/h (0 Bft)
26.08.2021 18:35 12,7 C 17,3 C 12,5 C 12,6 C 12,4 C 0,0 C 87 % 92 % 1010,2 hPa 0,0 l/m 0,0 km/h (0 Bft) W-SW 247 0 min 10,6 C 12,4 C 0,0 km/h (0 Bft)
26.08.2021 18:40 12,5 C 17,3 C 12,5 C 12,4 C 12,3 C 0,0 C 87 % 92 % 1010,2 hPa 0,0 l/m 0,0 km/h (0 Bft) S 180 0 min 10,4 C 12,3 C 1,8 km/h (1 Bft)
26.08.2021 18:45 12,4 C 17,3 C 12,4 C 12,3 C 12,2 C 0,0 C 87 % 93 % 1010,2 hPa 0,7 l/m 0,0 km/h (0 Bft) W-SW 247 0 min 10,3 C 12,2 C 0,0 km/h (0 Bft)
26.08.2021 18:50 12,4 C 17,3 C 12,3 C 12,3 C 12,2 C 0,0 C 87 % 93 % 1010,2 hPa 0,0 l/m 0,0 km/h (0 Bft) W-SW 247 0 min 10,3 C 12,2 C 0,0 km/h (0 Bft)
26.08.2021 18:55 12,3 C 17,4 C 12,3 C 12,2 C 12,1 C 0,0 C 87 % 93 % 1010,0 hPa 0,7 l/m 0,0 km/h (0 Bft) S 180 0 min 10,2 C 12,1 C 0,0 km/h (0 Bft)
26.08.2021 19:00 12,2 C 17,4 C 12,3 C 12,2 C 12,1 C 0,0 C 87 % 93 % 1010,0 hPa 0,0 l/m 0,0 km/h (0 Bft) W-SW 247 0 min 10,1 C 12,1 C 0,0 km/h (0 Bft)
26.08.2021 19:05 12,1 C 17,4 C 12,2 C 12,1 C 12,0 C 0,0 C 87 % 93 % 1010,0 hPa 0,0 l/m 0,0 km/h (0 Bft) SW 225 0 min 10,0 C 12,0 C 0,0 km/h (0 Bft)
26.08.2021 19:10 12,0 C 17,4 C 12,1 C 12,0 C 11,9 C 0,0 C 87 % 93 % 1010,0 hPa 0,0 l/m 0,5 km/h (0 Bft) SW 225 0 min 9,9 C 11,9 C 0,0 km/h (0 Bft)
26.08.2021 19:15 12,0 C 17,4 C 12,1 C 12,0 C 11,9 C 0,0 C 87 % 93 % 1009,9 hPa 0,7 l/m 0,8 km/h (0 Bft) SW 225 0 min 9,9 C 11,9 C 1,9 km/h (1 Bft)
26.08.2021 19:20 11,9 C 17,4 C 12,1 C 11,9 C 11,9 C 0,0 C 87 % 93 % 1009,9 hPa 0,0 l/m 0,5 km/h (0 Bft) S 180 0 min 9,8 C 11,9 C 0,0 km/h (0 Bft)
26.08.2021 19:25 11,9 C 17,4 C 12,0 C 11,9 C 11,8 C 0,0 C 87 % 93 % 1009,9 hPa 0,7 l/m 0,8 km/h (0 Bft) S 180 0 min 9,8 C 11,8 C 2,3 km/h (1 Bft)
26.08.2021 19:30 11,7 C 17,4 C 11,9 C 11,7 C 11,7 C 0,0 C 87 % 93 % 1009,9 hPa 0,0 l/m 1,0 km/h (0 Bft) SW 225 0 min 9,6 C 11,7 C 1,9 km/h (1 Bft)
26.08.2021 19:35 11,6 C 17,4 C 11,9 C 11,7 C 11,7 C 0,1 C 87 % 93 % 1010,1 hPa 0,7 l/m 0,5 km/h (0 Bft) SW 225 0 min 9,5 C 11,7 C 0,0 km/h (0 Bft)
26.08.2021 19:40 11,5 C 17,4 C 11,9 C 11,7 C 11,7 C 0,2 C 87 % 93 % 1010,1 hPa 0,0 l/m 0,2 km/h (0 Bft) W-SW 247 0 min 9,4 C 11,7 C 0,0 km/h (0 Bft)
26.08.2021 19:45 11,5 C 17,4 C 11,9 C 11,7 C 11,7 C 0,2 C 87 % 94 % 1010,1 hPa 0,7 l/m 0,0 km/h (0 Bft) W-SW 247 0 min 9,4 C 11,7 C 0,0 km/h (0 Bft)
26.08.2021 19:50 11,5 C 17,3 C 11,9 C 11,7 C 11,7 C 0,2 C 87 % 94 % 1010,1 hPa 0,0 l/m 0,0 km/h (0 Bft) W-SW 247 0 min 9,4 C 11,7 C 0,0 km/h (0 Bft)
26.08.2021 19:55 11,3 C 17,3 C 11,9 C 11,7 C 11,7 C 0,4 C 87 % 94 % 1010,0 hPa 1,4 l/m 0,0 km/h (0 Bft) W-SW 247 5 min 9,2 C 11,7 C 0,0 km/h (0 Bft)
26.08.2021 20:00 11,3 C 17,3 C 11,9 C 11,7 C 11,7 C 0,4 C 87 % 94 % 1010,0 hPa 0,0 l/m 0,0 km/h (0 Bft) S 180 0 min 9,2 C 11,7 C 0,0 km/h (0 Bft)
26.08.2021 20:05 11,2 C 17,3 C 11,9 C 11,7 C 11,7 C 0,5 C 87 % 94 % 1010,0 hPa 0,0 l/m 0,0 km/h (0 Bft) S 180 0 min 9,1 C 11,7 C 0,0 km/h (0 Bft)
26.08.2021 20:10 11,3 C 17,3 C 11,9 C 11,7 C 11,7 C 0,4 C 87 % 94 % 1010,0 hPa 0,0 l/m 0,0 km/h (0 Bft) S 180 0 min 9,2 C 11,7 C 0,0 km/h (0 Bft)
26.08.2021 20:15 11,2 C 17,3 C 11,8 C 11,7 C 11,7 C 0,5 C 87 % 94 % 1010,0 hPa 0,0 l/m 0,0 km/h (0 Bft) W-SW 247 0 min 9,1 C 11,7 C 0,0 km/h (0 Bft)
26.08.2021 20:20 11,2 C 17,3 C 11,9 C 11,6 C 11,6 C 0,4 C 87 % 94 % 1010,0 hPa 0,0 l/m 0,0 km/h (0 Bft) S-SO 157 0 min 9,1 C 11,6 C 0,0 km/h (0 Bft)
26.08.2021 20:25 11,1 C 17,3 C 11,9 C 11,6 C 11,6 C 0,5 C 87 % 94 % 1010,0 hPa 0,0 l/m 0,0 km/h (0 Bft) S 180 0 min 9,0 C 11,6 C 0,0 km/h (0 Bft)
26.08.2021 20:30 11,1 C 17,3 C 11,9 C 11,6 C 11,6 C 0,5 C 87 % 94 % 1010,0 hPa 0,0 l/m 0,0 km/h (0 Bft) SO 135 0 min 9,0 C 11,6 C 0,0 km/h (0 Bft)
26.08.2021 20:35 11,1 C 17,2 C 11,9 C 11,6 C 11,6 C 0,5 C 87 % 94 % 1010,2 hPa 0,0 l/m 0,0 km/h (0 Bft) S 180 0 min 9,0 C 11,6 C 0,0 km/h (0 Bft)
26.08.2021 20:40 11,1 C 17,2 C 11,9 C 11,6 C 11,6 C 0,5 C 87 % 94 % 1010,2 hPa 0,0 l/m 0,0 km/h (0 Bft) S 180 0 min 9,0 C 11,6 C 0,0 km/h (0 Bft)
26.08.2021 20:45 11,1 C 17,2 C 11,9 C 11,6 C 11,6 C 0,5 C 87 % 94 % 1010,2 hPa 0,0 l/m 0,0 km/h (0 Bft) SW 225 0 min 9,0 C 11,6 C 0,0 km/h (0 Bft)
26.08.2021 20:50 10,9 C 17,2 C 11,9 C 11,6 C 11,6 C 0,7 C 87 % 94 % 1010,2 hPa 0,0 l/m 0,0 km/h (0 Bft) SW 225 0 min 8,8 C 11,6 C 0,0 km/h (0 Bft)
26.08.2021 20:55 10,9 C 17,2 C 11,8 C 11,6 C 11,6 C 0,7 C 87 % 94 % 1010,6 hPa 0,0 l/m 0,0 km/h (0 Bft) SW 225 0 min 8,8 C 11,6 C 0,0 km/h (0 Bft)
26.08.2021 21:00 10,8 C 17,2 C 11,8 C 11,5 C 11,5 C 0,7 C 87 % 94 % 1010,6 hPa 0,0 l/m 0,0 km/h (0 Bft) SW 225 0 min 8,7 C 11,5 C 0,0 km/h (0 Bft)
26.08.2021 21:05 10,8 C 17,2 C 11,8 C 11,5 C 11,5 C 0,7 C 87 % 94 % 1010,6 hPa 0,0 l/m 0,0 km/h (0 Bft) W 270 0 min 8,7 C 11,5 C 0,0 km/h (0 Bft)
26.08.2021 21:10 10,8 C 17,2 C 11,8 C 11,5 C 11,5 C 0,7 C 87 % 94 % 1010,6 hPa 0,0 l/m 0,0 km/h (0 Bft) W 270 0 min 8,7 C 11,5 C 0,0 km/h (0 Bft)
26.08.2021 21:15 10,8 C 17,2 C 11,8 C 11,5 C 11,5 C 0,7 C 87 % 94 % 1010,7 hPa 0,0 l/m 0,0 km/h (0 Bft) W 270 0 min 8,7 C 11,5 C 0,0 km/h (0 Bft)
26.08.2021 21:20 10,7 C 17,2 C 11,8 C 11,5 C 11,5 C 0,8 C 87 % 94 % 1010,7 hPa 0,0 l/m 0,0 km/h (0 Bft) W 270 0 min 8,6 C 11,5 C 0,0 km/h (0 Bft)
26.08.2021 21:25 10,7 C 17,2 C 11,7 C 11,5 C 11,5 C 0,8 C 87 % 94 % 1010,7 hPa 0,0 l/m 0,0 km/h (0 Bft) W 270 0 min 8,6 C 11,5 C 0,0 km/h (0 Bft)
26.08.2021 21:30 10,7 C 17,2 C 11,7 C 11,5 C 11,5 C 0,8 C 87 % 94 % 1010,7 hPa 0,0 l/m 0,0 km/h (0 Bft) W-SW 247 0 min 8,6 C 11,5 C 0,0 km/h (0 Bft)
26.08.2021 21:35 10,6 C 17,2 C 11,7 C 11,4 C 11,4 C 0,8 C 87 % 94 % 1010,7 hPa 0,0 l/m 0,0 km/h (0 Bft) W-SW 247 0 min 8,5 C 11,4 C 0,0 km/h (0 Bft)
26.08.2021 21:40 10,5 C 17,2 C 11,7 C 11,4 C 11,4 C 0,9 C 87 % 94 % 1010,7 hPa 0,0 l/m 0,0 km/h (0 Bft) W-SW 247 0 min 8,4 C 11,4 C 0,0 km/h (0 Bft)
26.08.2021 21:45 10,4 C 17,2 C 11,7 C 11,4 C 11,4 C 1,0 C 87 % 94 % 1010,7 hPa 0,0 l/m 0,0 km/h (0 Bft) W-SW 247 0 min 8,3 C 11,4 C 0,0 km/h (0 Bft)
26.08.2021 21:50 10,4 C 17,2 C 11,6 C 11,3 C 11,3 C 0,9 C 87 % 94 % 1010,7 hPa 0,0 l/m 0,0 km/h (0 Bft) W-SW 247 0 min 8,3 C 11,3 C 0,0 km/h (0 Bft)
26.08.2021 21:55 10,5 C 17,2 C 11,7 C 11,3 C 11,3 C 0,8 C 87 % 94 % 1010,9 hPa 0,0 l/m 0,0 km/h (0 Bft) W-SW 247 0 min 8,4 C 11,3 C 0,0 km/h (0 Bft)
26.08.2021 22:00 10,4 C 17,2 C 11,7 C 11,4 C 11,4 C 1,0 C 87 % 94 % 1010,9 hPa 0,0 l/m 0,0 km/h (0 Bft) W-SW 247 0 min 8,3 C 11,4 C 0,0 km/h (0 Bft)
26.08.2021 22:05 10,4 C 17,2 C 11,7 C 11,4 C 11,4 C 1,0 C 87 % 94 % 1010,9 hPa 0,0 l/m 0,0 km/h (0 Bft) W-SW 247 0 min 8,3 C 11,4 C 0,0 km/h (0 Bft)
26.08.2021 22:10 10,4 C 17,2 C 11,7 C 11,4 C 11,4 C 1,0 C 87 % 94 % 1010,9 hPa 0,0 l/m 0,0 km/h (0 Bft) W-SW 247 0 min 8,3 C 11,4 C 0,0 km/h (0 Bft)
26.08.2021 22:15 10,3 C 17,2 C 11,7 C 11,3 C 11,3 C 1,0 C 87 % 94 % 1010,8 hPa 0,0 l/m 0,0 km/h (0 Bft) W-SW 247 0 min 8,2 C 11,3 C 0,0 km/h (0 Bft)
26.08.2021 22:20 10,3 C 17,2 C 11,7 C 11,3 C 11,3 C 1,0 C 87 % 94 % 1010,8 hPa 0,0 l/m 0,0 km/h (0 Bft) W-SW 247 0 min 8,2 C 11,3 C 0,0 km/h (0 Bft)
26.08.2021 22:25 10,3 C 17,2 C 11,7 C 11,3 C 11,3 C 1,0 C 87 % 94 % 1010,8 hPa 0,0 l/m 0,0 km/h (0 Bft) W-SW 247 0 min 8,2 C 11,3 C 0,0 km/h (0 Bft)
26.08.2021 22:30 10,2 C 17,2 C 11,6 C 11,3 C 11,3 C 1,1 C 87 % 94 % 1010,8 hPa 0,0 l/m 0,0 km/h (0 Bft) W-SW 247 0 min 8,1 C 11,3 C 0,0 km/h (0 Bft)
26.08.2021 22:35 10,2 C 17,2 C 11,6 C 11,3 C 11,3 C 1,1 C 87 % 94 % 1010,4 hPa 0,0 l/m 0,0 km/h (0 Bft) W-SW 247 0 min 8,1 C 11,3 C 0,0 km/h (0 Bft)
26.08.2021 22:40 10,3 C 17,2 C 11,6 C 11,4 C 11,4 C 1,1 C 87 % 94 % 1010,4 hPa 0,0 l/m 0,0 km/h (0 Bft) W-SW 247 0 min 8,2 C 11,4 C 0,0 km/h (0 Bft)
26.08.2021 22:45 10,2 C 17,2 C 11,6 C 11,4 C 11,4 C 1,2 C 87 % 94 % 1010,4 hPa 0,0 l/m 0,0 km/h (0 Bft) W-SW 247 0 min 8,1 C 11,4 C 0,0 km/h (0 Bft)
26.08.2021 22:50 10,2 C 17,2 C 11,6 C 11,4 C 11,4 C 1,2 C 87 % 93 % 1010,4 hPa 0,0 l/m 0,0 km/h (0 Bft) W-SW 247 0 min 8,1 C 11,4 C 0,0 km/h (0 Bft)
26.08.2021 22:55 10,2 C 17,2 C 11,6 C 11,4 C 11,4 C 1,2 C 87 % 93 % 1010,8 hPa 0,0 l/m 0,0 km/h (0 Bft) W-SW 247 0 min 8,1 C 11,4 C 0,0 km/h (0 Bft)
26.08.2021 23:00 10,1 C 17,2 C 11,6 C 11,4 C 11,4 C 1,3 C 87 % 94 % 1010,8 hPa 0,0 l/m 0,0 km/h (0 Bft) W 270 0 min 8,0 C 11,4 C 0,0 km/h (0 Bft)
26.08.2021 23:05 10,3 C 17,2 C 11,6 C 11,5 C 11,5 C 1,2 C 87 % 93 % 1010,8 hPa 0,0 l/m 0,0 km/h (0 Bft) W 270 0 min 8,2 C 11,5 C 0,0 km/h (0 Bft)
26.08.2021 23:10 10,3 C 17,2 C 11,6 C 11,4 C 11,4 C 1,1 C 87 % 94 % 1010,8 hPa 0,0 l/m 0,0 km/h (0 Bft) W-SW 247 0 min 8,2 C 11,4 C 0,0 km/h (0 Bft)
26.08.2021 23:15 10,2 C 17,2 C 11,6 C 11,4 C 11,4 C 1,2 C 87 % 93 % 1010,7 hPa 0,0 l/m 0,0 km/h (0 Bft) W-SW 247 0 min 8,1 C 11,4 C 0,0 km/h (0 Bft)
26.08.2021 23:20 10,2 C 17,2 C 11,6 C 11,4 C 11,4 C 1,2 C 87 % 94 % 1010,7 hPa 0,0 l/m 0,0 km/h (0 Bft) W-SW 247 0 min 8,1 C 11,4 C 0,0 km/h (0 Bft)
26.08.2021 23:25 10,3 C 17,2 C 11,6 C 11,3 C 11,3 C 1,0 C 87 % 94 % 1010,7 hPa 0,0 l/m 0,0 km/h (0 Bft) W-SW 247 0 min 8,2 C 11,3 C 0,0 km/h (0 Bft)
26.08.2021 23:30 10,3 C 17,2 C 11,6 C 11,3 C 11,3 C 1,0 C 87 % 93 % 1010,7 hPa 0,0 l/m 0,0 km/h (0 Bft) W 270 0 min 8,2 C 11,3 C 0,0 km/h (0 Bft)
26.08.2021 23:35 10,3 C 17,2 C 11,6 C 11,3 C 11,3 C 1,0 C 87 % 93 % 1010,8 hPa 0,0 l/m 0,0 km/h (0 Bft) SW 225 0 min 8,2 C 11,3 C 0,0 km/h (0 Bft)
26.08.2021 23:40 10,3 C 17,3 C 11,6 C 11,4 C 11,4 C 1,1 C 87 % 93 % 1010,8 hPa 0,0 l/m 0,0 km/h (0 Bft) SW 225 0 min 8,2 C 11,4 C 0,0 km/h (0 Bft)
26.08.2021 23:45 10,2 C 17,3 C 11,7 C 11,5 C 11,5 C 1,3 C 87 % 93 % 1010,8 hPa 0,0 l/m 0,0 km/h (0 Bft) W-SW 247 0 min 8,1 C 11,5 C 0,0 km/h (0 Bft)
26.08.2021 23:50 10,2 C 17,3 C 11,7 C 11,5 C 11,5 C 1,3 C 87 % 93 % 1010,8 hPa 0,0 l/m 0,0 km/h (0 Bft) W-SW 247 0 min 8,1 C 11,5 C 0,0 km/h (0 Bft)
26.08.2021 23:55 10,3 C 17,3 C 11,7 C 11,5 C 11,5 C 1,2 C 87 % 93 % 1010,8 hPa 0,0 l/m 0,0 km/h (0 Bft) SW 225 0 min 8,2 C 11,5 C 0,0 km/h (0 Bft)
_ Min-Zeit 23:00 11:35 21:50 21:50 21:50 00:00 15:00 15:00 14:55 - 00:05 - - - 23:00 21:50 00:00
Minimum _ 10,1 C 16,9 C 11,6 C 11,3 C 11,3 C 0,0 C 69 % 73 % 1008,2 hPa - 0,0 km/h (0 Bft) - - - 8,0 C 11,3 C 0,0 km/h (0 Bft)
_ Max-Zeit 14:30 02:05 14:30 14:30 14:30 14:40 03:55 04:55 00:00 19:55 15:55 - - 06:25 14:25 14:30 15:55
Maximum _ 18,4 C 17,7 C 18,1 C 24,6 C 24,6 C 6,4 C 87 % 94 % 1012,0 hPa 1,4 l/m 5,6 km/h
N (1 Bft)
- - 5 min 13,9 C 24,6 C 20,1 km/h
N (4 Bft)
Durchschnitt _ 13,4 C 17,3 C 13,9 C 14,8 C 14,7 C 1,5 C 84 % 89 % 1009,7 hPa #11,7 l/m 1,0 km/h (0 Bft) S - #5:10 h 10,6 C 14,7 C 1,7 km/h (1 Bft)
2021 www.wetterstation-wechselburg.de